Las Vegas, NV

7:30 AM PST on February 08, 2016 (GMT -0800)
Nellis AFB

Weather History for KLSV - October, 2012

Change the Weather History Date:

Thursday, October 4, 2012

  Actual Average Record
Temperature  
Mean Temperature 80 °F -  
Max Temperature 93 °F 87 °F 95 °F (1999)
Min Temperature 66 °F 60 °F 51 °F (2002)
Cooling Degree Days 16    
Growing Degree Days 30 (Base 50)    
Moisture  
Dew Point 35 °F    
Average Humidity 19    
Maximum Humidity 30    
Minimum Humidity 10    
Precipitation  
Precipitation 0.00 in - - ()
Sea Level Pressure  
Sea Level Pressure 29.94 in    
Wind  
Wind Speed 7 mph (SSW)    
Max Wind Speed 13 mph    
Max Gust Speed -    
Visibility 10 miles    
Events      
Averages and records for this station are not official NWS values.
T = Trace of Precipitation, MM = Missing Value Source: NWS Daily Summary

Daily Weather History Graph

Daily Weather History Graph

Search for Another Location

Airport or City:

Trip Planner

Search our weather history database for the weather conditions in past years. The results will help you decide how hot, cold, wet, or windy it might be!

Date:

Astronomy

Oct. 04, 2012 Rise Set
Actual Time 6:38 AM PDT 6:18 PM PDT
Civil Twilight 6:12 AM PDT 6:44 PM PDT
Nautical Twilight 5:42 AM PDT 7:13 PM PDT
Astronomical Twilight 5:12 AM PDT 7:43 PM PDT
Moon 9:05 PM PDT (10/4) 10:50 AM PDT (10/4)
Length of Visible Light 12h 31m
Length of Day
11h 40m
Waning Gibbous, 81% of the Moon is Illuminated
Oct 4
Waning Gibbous
Oct 8
Last Quarter
Oct 15
New
Oct 21
First Quarter
Oct 29
Full

Hourly Weather History & Observations

Time (PDT) Temp. Dew Point Humidity Pressure Visibility Wind Dir Wind Speed Gust Speed Precip Events Conditions
12:55 AM 81.1 °F 32.9 °F 17% 29.85 in 10.0 mi SSW 12.7 mph - N/A   Clear
1:55 AM 79.3 °F 34.2 °F 20% 29.86 in 10.0 mi SW 6.9 mph - N/A   Clear
2:55 AM 79.0 °F 34.3 °F 20% 29.86 in 10.0 mi WSW 4.6 mph - N/A   Clear
3:55 AM 76.3 °F 34.3 °F 22% 29.86 in 10.0 mi ESE 3.5 mph - N/A   Clear
4:55 AM 67.5 °F 32.5 °F 27% 29.89 in 10.0 mi NE 4.6 mph - N/A   Clear
5:55 AM 66.6 °F 32.9 °F 29% 29.91 in 10.0 mi NE 6.9 mph - N/A   Clear
6:55 AM 69.8 °F 33.8 °F 27% 29.93 in 10.0 mi NE 3.5 mph - N/A   Clear
7:55 AM 69.4 °F 36.7 °F 30% 29.95 in 10.0 mi SW 3.5 mph - N/A   Clear
8:55 AM 74.7 °F 34.5 °F 23% 29.96 in 10.0 mi SE 3.5 mph - N/A   Clear
9:55 AM 79.0 °F 36.5 °F 22% 29.97 in 10.0 mi SSW 4.6 mph - N/A   Clear
10:55 AM 82.0 °F 37.0 °F 20% 29.96 in 10.0 mi WSW 3.5 mph - N/A   Clear
11:55 AM 85.6 °F 36.7 °F 18% 29.95 in 10.0 mi SSW 6.9 mph - N/A   Clear
12:55 PM 87.3 °F 34.9 °F 15% 29.92 in 10.0 mi Variable 3.5 mph - N/A   Clear
1:55 PM 89.6 °F 35.1 °F 14% 29.89 in 10.0 mi West 3.5 mph - N/A   Clear
3:00 PM 89.6 °F 35.1 °F 14% 30.16 in 10.0 mi West 3.5 mph - N/A   Clear
3:59 PM 95.0 °F 35.6 °F 12% 30.14 in 10.0 mi West 5.8 mph - N/A   Scattered Clouds
4:55 PM 93.2 °F 28.4 °F 10% 30.09 in 10.0 mi South 10.4 mph - N/A   Clear
5:55 PM 90.5 °F 31.5 °F 12% 29.88 in 10.0 mi South 10.4 mph - N/A   Clear
6:55 PM 86.7 °F 35.4 °F 16% 29.88 in 10.0 mi SSW 9.2 mph - N/A   Clear
7:55 PM 83.7 °F 35.1 °F 18% 29.89 in 10.0 mi South 9.2 mph - N/A   Clear
8:55 PM 83.5 °F 34.9 °F 18% 29.90 in 10.0 mi South 10.4 mph - N/A   Clear
9:55 PM 82.9 °F 35.1 °F 18% 29.90 in 10.0 mi South 12.7 mph - N/A   Clear
10:55 PM 79.7 °F 35.8 °F 21% 29.92 in 10.0 mi SW 9.2 mph - N/A   Clear
11:55 PM 78.3 °F 36.9 °F 22% 29.93 in 10.0 mi West 3.5 mph - N/A   Clear